Regional Weather Roundup
Issued by NWS

Home | Current Version | Previous Version | Graphics & Text | Print | Product List | Glossary Off
Versions: 1 2 3 4 5 6 7 8 9 10 11 12 13 14 15 16 17 18 19 20 21 22 23 24 25 26 27 28 29 30 31 32 33 34 35 36 37 38 39 40 41 42 43 44 45 46 47 48 49 50

000
ASUS43 KMKX 251021
RWRWI

WISCONSIN REGIONAL WEATHER ROUNDUP
NATIONAL WEATHER SERVICE MILWAUKEE/SULLIVAN WI
500 AM CDT MON SEP 25 2017

NOTE: "FAIR" INDICATES FEW OR NO CLOUDS BELOW 12,000 FEET WITH NO
SIGNIFICANT WEATHER AND/OR OBSTRUCTIONS TO VISIBILITY.

WIZ001-002-006>008-014>016-023>028-251100-
NORTHWEST WISCONSIN

CITY           SKY/WX    TMP DP  RH WIND       PRES   REMARKS
SUPERIOR ARPT  CLOUDY    62  60  95 W7        29.94R
ASHLAND        LGT RAIN  68  66  93 W6        29.92S
HAYWARD        CLOUDY    67  66  97 VRB6      29.95R
SIREN          LGT RAIN  63  62  96 NW9       29.96R
CUMBERLAND     LGT RAIN  64  63  94 W3        29.96S
RICE LAKE      CLOUDY    67  66  96 CALM      29.97R FOG
CHETEK         CLOUDY    68  66  92 CALM      29.95S
LADYSMITH      PTCLDY    65  62  90 CALM      29.97S
EAU CLAIRE     PTCLDY    65  62  90 CALM      29.93S
MENOMONIE      CLOUDY    69  66  90 W6        29.94S
NEW RICHMOND   CLOUDY    65  64  97 CALM      29.95F
OSCEOLA        CLOUDY    64  64 100 NW8       29.98S
$$

WIZ003>005-009-010-017-018-251100-
NORTH CENTRAL WISCONSIN

CITY           SKY/WX    TMP DP  RH WIND       PRES   REMARKS
MANITOWISH WTR PTCLDY    63  63 100 CALM      29.96R
ARBOR VITAE    CLEAR     64  60  86 CALM      29.97R
WOODRUFF       CLEAR     64  60  86 CALM      29.97R
RHINELANDER    CLEAR     67  61  81 SW5       29.99R
EAGLE RIVER    CLEAR     60  55  84 CALM      29.97S
LAND O LAKES   CLEAR     65  59  82 S3        29.98S
PHILLIPS       CLOUDY    62  62 100 CALM      29.96S
TOMAHAWK       CLEAR     58  57  95 CALM      29.98R
MEDFORD        CLEAR     58  57  95 CALM      29.96F
MERRILL        CLEAR     58  58 100 CALM      29.98S
$$

WIZ029-030-035-036-043>047-251100-
CENTRAL WISCONSIN

CITY           SKY/WX    TMP DP  RH WIND       PRES   REMARKS
WAUSAU         CLEAR     63  60  90 E5        29.96R
MOSINEE        CLEAR     63  59  88 SE3       29.98S
MARSHFIELD     CLEAR     63  58  83 SW3       29.96R
STEVENS POINT  CLOUDY    61  60  97 CALM      29.98S
WAUPACA        CLEAR     64  63  97 CALM      29.98R
WAUTOMA        CLEAR     60  59  96 CALM      29.98S
WISC RAPIDS    PTCLDY    68  61  78 S3        29.97S
CAMP DOUGLAS   CLEAR     62  61  97 S9        29.95S
$$

WIZ011>013-019>022-031-037>040-048>050-251100-
NORTHEAST WISCONSIN

CITY           SKY/WX    TMP DP  RH WIND       PRES   REMARKS
ANTIGO         CLEAR     63  60  90 S6        29.99S
SHAWANO        CLEAR     67  62  82 CALM      29.97R
OCONTO         CLEAR     62  59  91 CALM      29.96S
STURGEON BAY   CLEAR     69  61  75 S9        29.98S
GREEN BAY      CLEAR     68  61  78 S5        29.97S
MANITOWOC      CLEAR     61  60  97 CALM      29.99S FOG
APPLETON       CLEAR     66  57  72 CALM      29.97S
CLINTONVILLE   CLEAR     63  61  94 CALM      29.97S
OSHKOSH        CLEAR     65  60  84 S7        29.97S
$$

WIZ032>034-041-042-053>061-251100-
SOUTHWEST WISCONSIN

CITY           SKY/WX    TMP DP  RH WIND       PRES   REMARKS
LA CROSSE      CLEAR     70  64  81 SE3       29.92F
SPARTA         CLEAR     59  58  96 CALM      29.95S
VIROQUA        CLEAR     66  63  90 S5        29.97R
BOSCOBEL       FOG       61  59  93 CALM      29.95F VSB 1
PRAIRIE DU CHI CLEAR     66  61  85 SE3       29.94S
PLATTEVILLE    CLEAR     67  63  85 SE3       29.98R
$$

WIZ056-057-062-063-064-067-068-251100-
SOUTH CENTRAL WISCONSIN

CITY           SKY/WX    TMP DP  RH WIND       PRES   REMARKS
REEDSBURG      CLEAR     65  62  91 NE3       29.96S
BARABOO/DELLS  CLEAR     66  59  79 S7        29.97S
LONE ROCK      CLEAR     60  59  96 CALM      29.96S FOG
MINERAL POINT  CLEAR     68  63  83 SE5       29.98S
MADISON        CLEAR     63  61  93 CALM      29.98S
MIDDLETON      CLEAR     62  61  96 CALM      29.99S
WATERTOWN      CLEAR     62  62  99 CALM      29.99R
MONROE         CLEAR     68  57  68 S7        29.98S
JANESVILLE     CLEAR     63  63 100 CALM      29.98S
$$

WIZ051-052-058>065-066-070>072-251100-
SOUTHEAST WISCONSIN

CITY           SKY/WX    TMP DP  RH WIND       PRES   REMARKS
MILWAUKEE      PTCLDY    68  63  84 S3        29.99S
WAUKESHA       CLEAR     63  59  88 S3        30.01S
MILWAUKEE/TIMM CLEAR     63  57  82 CALM      30.00F
RACINE         CLEAR     68  66  93 CALM      30.01S
BURLINGTON     CLEAR     58  58 100 CALM      29.99F
KENOSHA        CLEAR     63  61  93 SW3       30.00S
FOND DU LAC    CLEAR     65  59  81 S5        29.98F
SHEBOYGAN      CLEAR     60  60 100 CALM      29.99S
WEST BEND        N/A     59  59 100 CALM      30.00S
JUNEAU         CLEAR     65  59  82 CALM      30.00S
$$

LSZ147-162-251100-
LAKE SUPERIOR

STATION/POSITION TIME  TEMP    WIND        PRES    WAVE
                       AIR SEA DIR/SP/G            HT/PER
                 (UTC) (F)     (DEG/KT/KT) (MB)    (FT/S)
W MID LAKE BUOY  0950   62 56  240/ 12/ 14 1011.2R   1
DEVILS ISLAND    1000   65     230/ 16/ 19 1012.2R
PORT WING        0930   68     230/  5/  8 1012.9R
SAXON HARBOR     0940   68     230/  1/  3 1012.2S
$$

LMZ867-665-643>646-251100-
LAKE MICHIGAN

STATION/POSITION TIME  TEMP    WIND        PRES    WAVE
                       AIR SEA DIR/SP/G            HT/PER
                 (UTC) (F)     (DEG/KT/KT) (MB)    (FT/S)
S GREEN BAY BUOY 1000   71 70  180/  8/ 10 1014.5
N MID LAKE BUOY  0950   69 67  190/ 10/ 12 1015.5S   1/ 4
NORTHPORT PIER   0930   69     160/  4/  7 1014.6S
KEWAUNEE LAKESHO 0954   64     180/  1/  2 1014.4F
SHEBOYGAN LAKESH 1000   69     200/  4/  4 1015.0F
PORT WASHINGTON  0930   65     260/  3/  3 1016.6R
ATWATER BUOY     0909   66 62  150/  4/  4 1015.7F
MILWAUKEE LAKESH 1000   67     120/  2/  3   N/A
S MID LAKE BUOY  0950   72 71  160/  8/ 10 1015.9R   1
KENOSHA   LAKESH 1000   71     190/  3/  5 1015.6
$$

TC  - TEMPERATURE IN CELSIUS
VSB - VISIBILITY IN STATUTE MILES
WCI - WIND CHILL INDEX
HX  - HEAT INDEX





USA.gov is the U.S. government's official web portal to all federal, state and local government web resources and services.